Year,Month,Day,Hour,Minute,Value (Times are PST for windgust in km/hr)
2017,05,05,04,20,20.90
2017,05,05,04,21,29.00
2017,05,05,04,22,29.00
2017,05,05,04,23,27.40
2017,05,05,04,24,12.90
2017,05,05,04,25,16.10
2017,05,05,04,26,17.70
2017,05,05,04,27,17.70
2017,05,05,04,28,19.30
2017,05,05,04,29,17.70
2017,05,05,04,30,17.70
2017,05,05,04,31,19.30
2017,05,05,04,32,12.90
2017,05,05,04,33,11.30
2017,05,05,04,34,12.90
2017,05,05,04,35,19.30
2017,05,05,04,36,19.30
2017,05,05,04,37,11.30
2017,05,05,04,38,14.50
2017,05,05,04,39,22.50
2017,05,05,04,40,19.30
2017,05,05,04,41,16.10
2017,05,05,04,42,17.70
2017,05,05,04,43,14.50
2017,05,05,04,44,16.10
2017,05,05,04,45,19.30
2017,05,05,04,46,17.70
2017,05,05,04,47,14.50
2017,05,05,04,48,14.50
2017,05,05,04,49,9.60
2017,05,05,04,50,17.70
2017,05,05,04,51,14.50
2017,05,05,04,52,19.30
2017,05,05,04,53,17.70
2017,05,05,04,54,17.70
2017,05,05,04,55,16.10
2017,05,05,04,56,16.10
2017,05,05,04,57,14.50
2017,05,05,04,58,11.30
2017,05,05,04,59,11.30
2017,05,05,05,00,6.40
2017,05,05,05,01,4.80
2017,05,05,05,02,14.50
2017,05,05,05,03,12.90
2017,05,05,05,04,6.40
2017,05,05,05,06,3.20
2017,05,05,05,07,11.30
2017,05,05,05,08,12.90
2017,05,05,05,09,14.50
2017,05,05,05,10,14.50
2017,05,05,05,11,14.50
2017,05,05,05,12,16.10
2017,05,05,05,13,19.30
2017,05,05,05,14,16.10
2017,05,05,05,15,14.50
2017,05,05,05,16,12.90
2017,05,05,05,17,14.50
2017,05,05,05,18,22.50
2017,05,05,05,19,22.50
2017,05,05,05,20,27.40
2017,05,05,05,21,25.70
2017,05,05,05,22,24.20
2017,05,05,05,23,29.00
2017,05,05,05,24,20.90
2017,05,05,05,25,24.20
2017,05,05,05,26,25.70
2017,05,05,05,27,22.50
2017,05,05,05,28,20.90
2017,05,05,05,29,24.20
2017,05,05,05,30,22.50
2017,05,05,05,31,22.50
2017,05,05,05,32,24.20
2017,05,05,05,33,19.30
2017,05,05,05,34,24.20
2017,05,05,05,35,24.20
2017,05,05,05,36,25.70
2017,05,05,05,37,30.60
2017,05,05,05,38,24.20
2017,05,05,05,39,27.40
2017,05,05,05,40,22.50
2017,05,05,05,41,24.20
2017,05,05,05,42,27.40
2017,05,05,05,43,22.50
2017,05,05,05,44,20.90
2017,05,05,05,45,19.30
2017,05,05,05,46,22.50
2017,05,05,05,47,17.70
2017,05,05,05,48,17.70
2017,05,05,05,49,22.50
2017,05,05,05,50,22.50
2017,05,05,05,51,20.90
2017,05,05,05,52,11.30
2017,05,05,05,53,16.10
2017,05,05,05,54,14.50
2017,05,05,05,55,16.10
2017,05,05,05,56,11.30
2017,05,05,05,57,9.60
2017,05,05,05,58,12.90
2017,05,05,05,59,9.60
2017,05,05,06,00,11.30
2017,05,05,06,01,6.40
2017,05,05,06,02,16.10
2017,05,05,06,03,16.10
2017,05,05,06,04,11.30
2017,05,05,06,05,6.40
2017,05,05,06,06,6.40
2017,05,05,06,07,12.90
2017,05,05,06,08,9.60
2017,05,05,06,09,6.40
2017,05,05,06,10,9.60
2017,05,05,06,11,12.90
2017,05,05,06,12,6.40
2017,05,05,06,14,11.30
2017,05,05,06,15,11.30
2017,05,05,06,16,1.60
2017,05,05,06,17,6.40
2017,05,05,06,29,4.80
2017,05,05,06,30,11.30
2017,05,05,06,31,12.90
2017,05,05,06,32,6.40
2017,05,05,06,33,8.10
2017,05,05,06,34,4.80
2017,05,05,06,38,1.60
2017,05,05,06,39,1.60
2017,05,05,06,40,6.40
2017,05,05,06,41,8.10
2017,05,05,06,42,9.60
2017,05,05,06,43,1.60
2017,05,05,06,52,4.80
2017,05,05,06,53,3.20
2017,05,05,07,03,6.40
2017,05,05,07,04,6.40
2017,05,05,07,16,6.40
2017,05,05,07,21,12.90
2017,05,05,07,22,17.70
2017,05,05,07,23,16.10
2017,05,05,07,24,14.50
2017,05,05,07,25,6.40
2017,05,05,07,26,4.80
2017,05,05,07,27,1.60
2017,05,05,07,28,1.60
2017,05,05,07,29,6.40
2017,05,05,07,35,12.90
2017,05,05,07,36,12.90
2017,05,05,07,38,14.50
2017,05,05,07,39,11.30
2017,05,05,07,40,3.20
2017,05,05,09,01,14.50
2017,05,05,09,02,20.90
2017,05,05,09,03,19.30
2017,05,05,09,04,25.70
2017,05,05,09,05,25.70
2017,05,05,09,06,24.20
2017,05,05,09,07,19.30
2017,05,05,09,08,33.80
2017,05,05,09,09,19.30
2017,05,05,09,10,19.30
2017,05,05,09,11,19.30
2017,05,05,09,12,17.70
2017,05,05,09,13,17.70
2017,05,05,09,14,27.40
2017,05,05,09,15,16.10
2017,05,05,09,16,25.70
2017,05,05,09,17,17.70
2017,05,05,09,18,22.50
2017,05,05,09,19,24.20
2017,05,05,09,20,19.30
2017,05,05,09,21,20.90
2017,05,05,09,22,22.50
2017,05,05,09,23,17.70
2017,05,05,09,24,16.10
2017,05,05,09,25,14.50
2017,05,05,09,26,11.30
2017,05,05,09,27,12.90
2017,05,05,09,28,9.60
2017,05,05,09,29,6.40
2017,05,05,09,30,4.80
2017,05,05,09,32,1.60
2017,05,05,09,33,4.80
2017,05,05,09,37,6.40
2017,05,05,09,39,4.80
2017,05,05,09,48,20.90
2017,05,05,09,49,20.90
2017,05,05,09,50,17.70
2017,05,05,09,51,17.70
2017,05,05,09,52,16.10
2017,05,05,09,55,1.60
2017,05,05,09,56,1.60
2017,05,05,09,57,8.10
2017,05,05,09,58,9.60
2017,05,05,09,59,3.20
2017,05,05,10,01,19.30
2017,05,05,10,07,14.50
2017,05,05,10,12,16.10
2017,05,05,10,13,1.60
2017,05,05,10,27,4.80
2017,05,05,10,28,9.60
2017,05,05,10,30,1.60
2017,05,05,10,33,11.30
2017,05,05,10,34,16.10
2017,05,05,10,35,22.50
2017,05,05,10,36,22.50
2017,05,05,10,37,14.50
2017,05,05,10,38,8.10
2017,05,05,10,39,1.60
2017,05,05,10,41,1.60
2017,05,05,10,42,1.60
2017,05,05,10,43,3.20
2017,05,05,10,45,14.50
2017,05,05,10,46,4.80
2017,05,05,10,47,6.40
2017,05,05,10,48,8.10
2017,05,05,10,49,6.40
2017,05,05,10,51,1.60
2017,05,05,10,52,8.10
2017,05,05,10,53,1.60
2017,05,05,10,54,11.30
2017,05,05,10,55,1.60
2017,05,05,10,56,1.60
2017,05,05,10,57,3.20
2017,05,05,10,58,8.10
2017,05,05,10,59,1.60
2017,05,05,11,00,1.60
2017,05,05,11,01,1.60
2017,05,05,11,02,1.60
2017,05,05,11,03,3.20
2017,05,05,11,06,1.60
2017,05,05,11,07,3.20
2017,05,05,11,08,1.60
2017,05,05,11,09,3.20
2017,05,05,11,10,1.60
2017,05,05,11,11,3.20
2017,05,05,11,12,17.70
2017,05,05,11,13,20.90
2017,05,05,11,14,1.60
2017,05,05,11,15,6.40
2017,05,05,11,16,12.90
2017,05,05,11,17,16.10
2017,05,05,11,18,9.60
2017,05,05,11,20,8.10
2017,05,05,11,21,16.10
2017,05,05,11,22,14.50
2017,05,05,11,23,8.10
2017,05,05,11,24,8.10
2017,05,05,11,25,20.90
2017,05,05,11,26,9.60
2017,05,05,11,27,1.60
2017,05,05,11,28,8.10
2017,05,05,11,29,3.20
2017,05,05,11,30,3.20
2017,05,05,11,32,1.60
2017,05,05,11,34,17.70
2017,05,05,11,35,17.70
2017,05,05,11,36,6.40
2017,05,05,11,38,1.60
2017,05,05,11,39,3.20
2017,05,05,11,41,11.30
2017,05,05,11,42,16.10
2017,05,05,11,43,11.30
2017,05,05,11,44,1.60
2017,05,05,11,45,3.20
2017,05,05,11,46,8.10
2017,05,05,11,48,1.60
2017,05,05,11,49,27.40
2017,05,05,11,50,1.60
2017,05,05,11,51,6.40
2017,05,05,11,52,19.30
2017,05,05,11,54,16.10
2017,05,05,11,55,19.30
2017,05,05,11,56,29.00
2017,05,05,11,57,17.70
2017,05,05,11,58,16.10
2017,05,05,11,59,6.40
2017,05,05,12,00,11.30
2017,05,05,12,01,16.10
2017,05,05,12,02,3.20
2017,05,05,12,03,12.90
2017,05,05,12,04,17.70
2017,05,05,12,05,16.10
2017,05,05,12,06,14.50
2017,05,05,12,07,19.30
2017,05,05,12,08,25.70
2017,05,05,12,09,24.20
2017,05,05,12,10,12.90
2017,05,05,12,12,1.60
2017,05,05,12,13,1.60
2017,05,05,12,14,1.60
2017,05,05,12,15,1.60
2017,05,05,12,16,6.40
2017,05,05,12,17,17.70
2017,05,05,12,18,17.70
2017,05,05,12,19,17.70
2017,05,05,12,20,9.60
2017,05,05,12,21,14.50
2017,05,05,12,22,8.10
2017,05,05,12,23,19.30
2017,05,05,12,24,14.50
2017,05,05,12,25,6.40
2017,05,05,12,26,1.60
2017,05,05,12,27,16.10
2017,05,05,12,28,4.80
2017,05,05,12,29,12.90
2017,05,05,12,30,19.30
2017,05,05,12,31,6.40
2017,05,05,12,32,3.20
2017,05,05,12,34,11.30
2017,05,05,12,35,11.30
2017,05,05,12,36,12.90
2017,05,05,12,37,12.90
2017,05,05,12,38,16.10
2017,05,05,12,39,22.50
2017,05,05,12,40,24.20
2017,05,05,12,41,6.40
2017,05,05,12,42,20.90
2017,05,05,12,43,22.50
2017,05,05,12,44,22.50
2017,05,05,12,45,19.30
2017,05,05,12,46,11.30
2017,05,05,12,47,3.20
2017,05,05,12,48,19.30
2017,05,05,12,49,14.50
2017,05,05,12,50,25.70
2017,05,05,12,51,20.90
2017,05,05,12,52,17.70
2017,05,05,12,53,17.70
2017,05,05,12,55,14.50
2017,05,05,12,56,16.10
2017,05,05,12,57,20.90
2017,05,05,12,58,11.30
2017,05,05,13,00,24.20
2017,05,05,13,01,8.10
2017,05,05,13,07,16.10
2017,05,05,13,08,17.70
2017,05,05,13,09,22.50
2017,05,05,13,10,9.60
2017,05,05,13,11,17.70
2017,05,05,13,12,32.20
2017,05,05,13,13,12.90
2017,05,05,13,14,12.90
2017,05,05,13,15,14.50
2017,05,05,13,17,4.80
2017,05,05,13,18,22.50
2017,05,05,13,19,22.50
2017,05,05,13,20,29.00
2017,05,05,13,21,25.70
2017,05,05,13,22,32.20
2017,05,05,13,23,19.30
2017,05,05,13,24,22.50
2017,05,05,13,25,19.30
2017,05,05,13,26,22.50
2017,05,05,13,27,20.90
2017,05,05,13,28,19.30
2017,05,05,13,29,27.40
2017,05,05,13,30,29.00
2017,05,05,13,31,22.50
2017,05,05,13,32,24.20
2017,05,05,13,33,19.30
2017,05,05,13,34,24.20
2017,05,05,13,35,24.20
2017,05,05,13,36,19.30
2017,05,05,13,37,16.10
2017,05,05,13,38,14.50
2017,05,05,13,39,16.10
2017,05,05,13,40,33.80
2017,05,05,13,41,11.30
2017,05,05,13,42,14.50
2017,05,05,13,43,9.60
2017,05,05,13,44,12.90
2017,05,05,13,45,16.10
2017,05,05,13,46,19.30
2017,05,05,13,47,14.50
2017,05,05,13,48,17.70
2017,05,05,13,49,1.60
2017,05,05,13,51,8.10
2017,05,05,13,52,12.90
2017,05,05,13,53,25.70
2017,05,05,13,54,25.70
2017,05,05,13,55,40.20
2017,05,05,13,56,20.90
2017,05,05,13,57,20.90
2017,05,05,13,58,20.90
2017,05,05,13,59,27.40
2017,05,05,14,00,24.20
2017,05,05,14,01,29.00
2017,05,05,14,02,16.10
2017,05,05,14,03,17.70
2017,05,05,14,04,29.00
2017,05,05,14,05,25.70
2017,05,05,14,06,30.60
2017,05,05,14,07,14.50
2017,05,05,14,08,22.50
2017,05,05,14,09,29.00
2017,05,05,14,10,38.60
2017,05,05,14,11,30.60
2017,05,05,14,12,30.60
2017,05,05,14,13,30.60
2017,05,05,14,14,30.60
2017,05,05,14,15,30.60
2017,05,05,14,16,33.80
2017,05,05,14,17,32.20
2017,05,05,14,18,33.80
2017,05,05,14,19,25.70
2017,05,05,14,20,20.90
2017,05,05,14,21,17.70
2017,05,05,14,22,12.90
2017,05,05,14,23,22.50
2017,05,05,14,24,9.60
2017,05,05,14,25,17.70
2017,05,05,14,26,16.10
2017,05,05,14,27,27.40
2017,05,05,14,28,33.80
2017,05,05,14,29,24.20
2017,05,05,14,30,22.50
2017,05,05,14,31,24.20
2017,05,05,14,32,12.90
2017,05,05,14,33,16.10
2017,05,05,14,34,11.30
2017,05,05,14,35,24.20
2017,05,05,14,36,19.30
2017,05,05,14,37,33.80
2017,05,05,14,38,33.80
2017,05,05,14,39,19.30
2017,05,05,14,40,27.40
2017,05,05,14,41,27.40
2017,05,05,14,42,12.90
2017,05,05,14,43,17.70
2017,05,05,14,44,27.40
2017,05,05,14,45,16.10
2017,05,05,14,46,14.50
2017,05,05,14,47,32.20
2017,05,05,14,48,20.90
2017,05,05,14,49,32.20
2017,05,05,14,50,16.10
2017,05,05,14,51,12.90
2017,05,05,14,52,22.50
2017,05,05,14,53,25.70
2017,05,05,14,54,17.70
2017,05,05,14,55,16.10
2017,05,05,14,56,22.50
2017,05,05,14,57,16.10
2017,05,05,14,58,9.60
2017,05,05,14,59,19.30
2017,05,05,15,00,30.60
2017,05,05,15,01,17.70
2017,05,05,15,02,22.50
2017,05,05,15,03,22.50
2017,05,05,15,04,17.70
2017,05,05,15,05,17.70
2017,05,05,15,06,25.70
2017,05,05,15,07,17.70
2017,05,05,15,08,17.70
2017,05,05,15,09,16.10
2017,05,05,15,10,19.30
2017,05,05,15,11,20.90
2017,05,05,15,12,22.50
2017,05,05,15,13,14.50
2017,05,05,15,14,11.30
2017,05,05,15,15,17.70
2017,05,05,15,16,19.30
2017,05,05,15,17,17.70
2017,05,05,15,18,16.10
2017,05,05,15,19,17.70
2017,05,05,15,20,16.10
2017,05,05,15,21,11.30
2017,05,05,15,22,11.30
2017,05,05,15,23,12.90
2017,05,05,15,24,9.60
2017,05,05,15,25,19.30
2017,05,05,15,26,20.90
2017,05,05,15,27,30.60
2017,05,05,15,28,22.50
2017,05,05,15,29,19.30
2017,05,05,15,30,12.90
2017,05,05,15,31,17.70
2017,05,05,15,32,17.70
2017,05,05,15,33,24.20
2017,05,05,15,34,25.70
2017,05,05,15,35,22.50
2017,05,05,15,36,24.20
2017,05,05,15,37,16.10
2017,05,05,15,38,24.20
2017,05,05,15,39,32.20
2017,05,05,15,40,20.90
2017,05,05,15,41,32.20
2017,05,05,15,42,33.80
2017,05,05,15,43,25.70
2017,05,05,15,44,30.60
2017,05,05,15,45,24.20
2017,05,05,15,46,32.20
2017,05,05,15,47,20.90
2017,05,05,15,48,17.70
2017,05,05,15,49,25.70
2017,05,05,15,50,20.90
2017,05,05,15,51,29.00
2017,05,05,15,52,22.50
2017,05,05,15,53,33.80
2017,05,05,15,54,33.80
2017,05,05,15,55,51.50
2017,05,05,15,56,24.20
2017,05,05,15,57,30.60
2017,05,05,15,58,27.40
2017,05,05,15,59,43.50
2017,05,05,16,00,46.70
2017,05,05,16,01,29.00
2017,05,05,16,02,41.80
2017,05,05,16,03,38.60
2017,05,05,16,04,38.60
2017,05,05,16,05,27.40
2017,05,05,16,06,29.00
2017,05,05,16,07,32.20
2017,05,05,16,08,27.40
2017,05,05,16,09,35.40
2017,05,05,16,10,38.60
2017,05,05,16,11,30.60
2017,05,05,16,12,25.70
2017,05,05,16,13,27.40
2017,05,05,16,14,43.50
2017,05,05,16,15,27.40
2017,05,05,16,16,32.20
2017,05,05,16,17,37.00
2017,05,05,16,18,29.00
2017,05,05,16,19,25.70
2017,05,05,16,20,20.90
2017,05,05,16,21,29.00
2017,05,05,16,22,30.60
2017,05,05,16,23,22.50
2017,05,05,16,24,24.20
2017,05,05,16,25,30.60
2017,05,05,16,26,37.00
2017,05,05,16,27,32.20
2017,05,05,16,28,32.20
2017,05,05,16,29,32.20
2017,05,05,16,30,29.00
2017,05,05,16,31,25.70
2017,05,05,16,32,32.20
2017,05,05,16,33,32.20
2017,05,05,16,34,43.50
2017,05,05,16,35,27.40
2017,05,05,16,36,29.00
2017,05,05,16,37,35.40
2017,05,05,16,38,33.80
2017,05,05,16,39,27.40
2017,05,05,16,40,30.60
2017,05,05,16,41,32.20
2017,05,05,16,42,40.20
2017,05,05,16,43,37.00
2017,05,05,16,44,25.70
2017,05,05,16,45,16.10
2017,05,05,16,46,24.20
2017,05,05,16,47,32.20
2017,05,05,16,48,33.80
2017,05,05,16,49,27.40
2017,05,05,16,50,30.60
2017,05,05,16,51,24.20
2017,05,05,16,52,25.70
2017,05,05,16,53,25.70
2017,05,05,16,54,38.60
2017,05,05,16,55,32.20
2017,05,05,16,56,29.00
2017,05,05,16,57,24.20
2017,05,05,16,58,17.70
2017,05,05,16,59,19.30
2017,05,05,17,00,33.80
2017,05,05,17,01,32.20
2017,05,05,17,02,35.40
2017,05,05,17,03,30.60
2017,05,05,17,04,27.40
2017,05,05,17,05,38.60
2017,05,05,17,06,25.70
2017,05,05,17,07,25.70
2017,05,05,17,08,29.00
2017,05,05,17,09,27.40
2017,05,05,17,10,37.00
2017,05,05,17,11,29.00
2017,05,05,17,12,25.70
2017,05,05,17,13,29.00
2017,05,05,17,14,30.60
2017,05,05,17,15,27.40
2017,05,05,17,16,30.60
2017,05,05,17,17,22.50
2017,05,05,17,18,20.90
2017,05,05,17,19,20.90
2017,05,05,17,20,27.40
2017,05,05,17,21,27.40
2017,05,05,17,22,22.50
2017,05,05,17,23,11.30
2017,05,05,17,24,25.70
2017,05,05,17,25,19.30
2017,05,05,17,26,19.30
2017,05,05,17,27,25.70
2017,05,05,17,28,29.00
2017,05,05,17,29,29.00
2017,05,05,17,30,22.50
2017,05,05,17,31,30.60
2017,05,05,17,32,29.00
2017,05,05,17,33,19.30
2017,05,05,17,34,24.20
2017,05,05,17,35,29.00
2017,05,05,17,36,29.00
2017,05,05,17,37,30.60
2017,05,05,17,38,22.50
2017,05,05,17,39,24.20
2017,05,05,17,40,20.90
2017,05,05,17,41,25.70
2017,05,05,17,42,19.30
2017,05,05,17,43,27.40
2017,05,05,17,44,17.70
2017,05,05,17,45,22.50
2017,05,05,17,46,27.40
2017,05,05,17,47,25.70
2017,05,05,17,48,29.00
2017,05,05,17,49,35.40
2017,05,05,17,50,27.40
2017,05,05,17,51,24.20
2017,05,05,17,52,27.40
2017,05,05,17,53,14.50
2017,05,05,17,54,20.90
2017,05,05,17,55,24.20
2017,05,05,17,56,17.70
2017,05,05,17,57,24.20
2017,05,05,17,58,17.70
2017,05,05,17,59,24.20
2017,05,05,18,00,20.90
2017,05,05,18,01,14.50
2017,05,05,18,02,19.30
2017,05,05,18,03,22.50
2017,05,05,18,04,16.10
2017,05,05,18,05,20.90
2017,05,05,18,06,24.20
2017,05,05,18,07,12.90
2017,05,05,18,09,33.80
2017,05,05,18,10,25.70
2017,05,05,18,11,20.90
2017,05,05,18,12,22.50
2017,05,05,18,13,25.70
2017,05,05,18,14,20.90
2017,05,05,18,15,20.90
2017,05,05,18,16,22.50
2017,05,05,18,17,9.60
2017,05,05,18,18,14.50
2017,05,05,18,19,20.90
2017,05,05,18,20,22.50
2017,05,05,18,21,17.70
2017,05,05,18,22,4.80
2017,05,05,18,23,1.60
2017,05,05,18,24,12.90
2017,05,05,18,25,4.80
2017,05,05,18,26,19.30
2017,05,05,18,27,20.90
2017,05,05,18,28,6.40
2017,05,05,18,29,4.80
2017,05,05,18,30,16.10
2017,05,05,18,31,14.50
2017,05,05,18,32,19.30
2017,05,05,18,33,20.90
2017,05,05,18,34,19.30
2017,05,05,18,35,16.10
2017,05,05,18,36,16.10
2017,05,05,18,37,6.40
2017,05,05,18,40,14.50
2017,05,05,18,41,16.10
2017,05,05,18,42,19.30
2017,05,05,18,43,14.50
2017,05,05,18,44,19.30
2017,05,05,18,45,17.70
2017,05,05,18,46,16.10
2017,05,05,18,47,17.70
2017,05,05,18,48,19.30
2017,05,05,18,49,17.70
2017,05,05,18,50,9.60
2017,05,05,18,51,14.50
2017,05,05,18,52,11.30
2017,05,05,18,53,12.90
2017,05,05,18,54,12.90
2017,05,05,18,55,12.90
2017,05,05,18,56,14.50
2017,05,05,18,57,16.10
2017,05,05,18,58,19.30
2017,05,05,18,59,12.90
2017,05,05,19,00,14.50
2017,05,05,19,01,11.30
2017,05,05,19,02,1.60
2017,05,05,19,03,3.20
2017,05,05,19,04,3.20
2017,05,05,19,23,17.70
2017,05,05,19,24,11.30
2017,05,05,19,25,17.70
2017,05,05,19,26,20.90
2017,05,05,19,27,17.70
2017,05,05,19,28,20.90
2017,05,05,19,29,17.70
2017,05,05,19,30,19.30
2017,05,05,19,31,22.50
2017,05,05,19,32,20.90
2017,05,05,19,33,11.30
2017,05,05,19,34,24.20
2017,05,05,19,35,17.70
2017,05,05,19,36,16.10
2017,05,05,19,37,17.70
2017,05,05,19,38,12.90
2017,05,05,19,39,17.70
2017,05,05,19,40,17.70
2017,05,05,19,41,24.20
2017,05,05,19,42,22.50
2017,05,05,19,43,20.90
2017,05,05,19,44,20.90
2017,05,05,19,45,14.50
2017,05,05,19,46,11.30
2017,05,05,19,48,12.90
2017,05,05,19,49,8.10
2017,05,05,19,50,1.60
2017,05,05,19,51,1.60
2017,05,05,19,52,1.60
2017,05,05,19,54,12.90
2017,05,05,19,55,14.50
2017,05,05,19,56,16.10
2017,05,05,19,57,16.10
2017,05,05,19,58,12.90
2017,05,05,19,59,6.40
2017,05,05,20,00,16.10
2017,05,05,20,01,14.50
2017,05,05,20,02,16.10
2017,05,05,20,03,6.40
2017,05,05,20,05,17.70
2017,05,05,20,06,14.50
2017,05,05,20,07,19.30
2017,05,05,20,08,20.90
2017,05,05,20,09,14.50
2017,05,05,20,10,17.70
2017,05,05,20,11,19.30
2017,05,05,20,12,12.90
2017,05,05,20,13,8.10
2017,05,05,20,14,6.40
2017,05,05,20,15,3.20
2017,05,05,20,16,1.60
2017,05,05,20,20,8.10
2017,05,05,20,22,1.60
2017,05,05,20,23,4.80
2017,05,05,20,26,9.60
2017,05,05,20,27,9.60
2017,05,05,20,28,6.40
2017,05,05,20,31,3.20
2017,05,05,20,32,12.90
2017,05,05,20,33,1.60
2017,05,05,20,34,14.50
2017,05,05,20,35,6.40
2017,05,05,20,38,3.20
2017,05,05,20,42,3.20
2017,05,05,20,51,6.40
2017,05,05,20,52,1.60
2017,05,05,20,57,4.80
2017,05,05,20,58,9.60
2017,05,05,20,59,11.30
2017,05,05,21,00,3.20
2017,05,05,21,05,12.90
2017,05,05,21,06,1.60
2017,05,05,21,12,6.40
2017,05,05,21,13,4.80
2017,05,05,21,15,3.20
2017,05,05,21,27,4.80
2017,05,05,21,57,6.40
2017,05,05,22,06,1.60
